Location: *
(47.2969°N, 10.2930°E)
Time: 02:38:52
(UTC+00:00)

STARLINK-1221 - Pass Details

Date: 09 April 2020
Orbit: 376 x 383 km, 53.0° (Epoch: 03 June)

Event Time Altitude Azimuth Distance (km) Brightness Sun altitude
Rises 19:51:40 0° 295° (WNW) 2,274 8.4 -18.1°
Reaches altitude 10° 19:53:49 10° 287° (WNW) 1,415 6.8 -18.4°
Maximum altitude 19:56:46 37° 218° (SW) 618 3.8 -18.8°
Enters shadow 19:56:56 37° 210° (SSW) 621 3.8 -18.8°
